Location: Altglienicke
(52.4128°N, 13.5380°E)
Time: 00:16:44
(UTC+00:00)

Daily predictions for brighter satellites

Satellite Brightness Start Highest point End
(mag) Time Altitude Azimuth Time Altitude Azimuth Time Altitude Azimuth
SL-16 R/B 2.9 00:12:19 60° NNE 00:12:19 60° NNE 00:17:42 10° NNW
Cosmos 2341 Rocket 4.4 00:07:19 10° N 00:13:04 58° NE 00:13:04 58° NE
Cosmos 1943 Rocket 3.5 00:17:16 33° NNW 00:17:16 33° NNW 00:21:33 10° NNE
COSMOS 2455 4.5 00:18:59 25° NW 00:20:25 27° NNW 00:25:31 10° NNE
CZ-2D R/B 3.3 00:16:54 10° NNE 00:20:45 36° ENE 00:20:45 36° ENE
ATLAS 5 CENTAUR R/B 3.9 00:26:24 20° ENE 00:26:24 20° ENE 00:28:04 10° ENE
Cosmos 2297 Rocket 2.9 00:24:19 10° NNW 00:28:49 50° N 00:28:49 50° N
Resurs 1-4 Rocket 3.0 00:30:53 10° NNE 00:34:54 45° ENE 00:34:54 45° ENE
Cosmos 2369 Rocket 3.4 00:41:05 34° NNW 00:41:05 34° NNW 00:45:45 10° NNE
Nadezhda 1 Rocket 4.3 00:42:42 58° NNW 00:42:42 58° NNW 00:47:43 10° N
Gbstr 26 Del rocket 4.3 00:44:54 82° SW 00:45:17 85° S 00:53:12 10° E
CZ-4C R/B 3.8 00:47:10 27° NW 00:49:12 34° N 00:55:25 10° NE
USA 267 4.2 00:49:16 10° ENE 00:54:57 34° SE 00:54:57 34° SE
ATLAS 2AS CENTAUR R/B 4.2 00:51:48 10° WNW 00:58:58 36° N 01:05:46 10° ENE
Cosmos 2263 Rocket 4.4 00:55:21 10° NNW 00:59:49 23° NE 01:04:18 10° E
Cosmos 2221 4.2 01:06:06 29° N 01:06:06 29° N 01:08:19 10° N
Cosmos 1818 4.2 01:05:33 48° E 01:05:33 48° E 01:10:04 10° NE
SL-8 Rocket 4.0 01:06:28 10° NNW 01:12:13 69° WNW 01:12:13 69° WNW
Meteor 2-2 Rocket 4.3 01:23:00 67° NW 01:23:00 67° NW 01:28:24 10° N
Cosmos 2218 Rocket 3.9 01:17:43 10° NNW 01:24:05 72° W 01:24:05 72° W
Cosmos 2366 rocket 3.9 01:20:19 10° NNW 01:26:34 72° W 01:26:34 72° W
Cosmos 2227 Rocket 2.8 01:21:22 10° NW 01:25:13 44° NW 01:25:13 44° NW
Cosmos 1992 Rocket 4.0 01:30:28 73° E 01:30:28 73° E 01:35:35 10° NNE
Cosmos 1656 3.9 01:30:38 56° SE 01:31:00 57° ESE 01:36:24 10° NE
Lacrosse 5 3.4 01:32:48 25° SE 01:32:48 25° SE 01:36:49 10° ENE
USA 234 3.1 01:26:18 10° ESE 01:32:51 81° SSW 01:37:43 20° WNW
ADEOS II 2.1 01:32:44 10° NNE 01:38:02 74° ESE 01:38:28 70° SE
CZ-4B R/B 3.4 01:35:31 10° NNE 01:40:37 82° ESE 01:40:47 80° SE
SL-08 R/B 3.2 01:47:13 84° ENE 01:47:13 84° ENE 01:51:52 10° NNW
NOSS 2-2 (C) 4.3 01:42:00 10° NW 01:47:13 86° NE 01:54:29 10° SE
Cosmos 220 Rocket 4.3 01:48:14 62° ENE 01:48:14 62° ENE 01:52:03 10° NNE
SL-08 R/B 4.4 01:41:26 10° NNW 01:47:50 77° W 01:49:27 53° SSW
Cosmos 2181 Rocket 4.0 01:47:57 57° W 01:48:25 59° WNW 01:54:33 10° N
Cosmos 1633 Rocket 3.4 01:45:28 10° N 01:48:58 57° N 01:48:58 57° N
IDEFIX/ARIANE 42P 3.6 01:45:56 10° NNE 01:50:56 41° E 01:53:40 24° SSE
Cosmos 1328 Rocket 4.2 01:51:45 45° SE 01:52:29 51° E 01:56:49 10° NNE
IRS-1C 4.3 01:49:09 10° NNE 01:54:30 69° ESE 01:55:57 47° SSE
Cosmos 1666 Rocket 4.2 01:50:33 10° NNW 01:53:47 45° NNW 01:53:47 45° NNW
SL-16 R/B 3.8 01:57:26 25° WNW 01:57:26 25° WNW 02:00:54 10° NW
Cosmos 1241 Rocket 4.5 01:54:48 56° WSW 01:56:09 75° NW 02:02:38 10° NE
Cosmos 2369 4.5 01:54:43 32° SSE 01:56:51 46° ESE 02:02:19 10° NE
Cosmos 1606 3.4 01:59:13 48° N 01:59:13 48° N 02:02:02 10° N
ARIANE 5 R/B 2.9 01:55:01 10° NNE 02:00:05 60° ESE 02:01:51 38° SSE
ATLAS CENTAUR R/B 4.2 01:43:24 10° W 02:00:29 66° N 02:06:30 10° ENE
Cosmos 1151 Rocket 3.2 02:00:39 61° SE 02:01:04 66° E 02:05:23 10° NNE
IRS-1D 3.5 01:55:47 10° NNE 02:01:08 70° WNW 02:01:48 62° WSW
CZ-2D R/B 2.8 01:57:06 10° N 02:01:59 38° WNW 02:02:04 38° WNW
Cosmos 1943 Rocket 4.5 01:59:06 10° NW 02:01:59 14° NNW 02:04:52 10° NNE
AQUA 4.4 01:57:55 10° N 02:02:08 44° NW 02:02:08 44° NW
NPP 4.2 02:03:07 10° N 02:08:07 40° WNW 02:08:28 40° WNW
ATLAS 5 CENTAUR R/B 2.1 02:07:56 46° NW 02:08:19 47° NNW 02:13:07 10° NE
CZ-4C R/B 4.3 02:09:00 12° SE 02:12:06 41° ENE 02:15:30 10° N
Genesis I 4.0 02:12:59 40° NNW 02:12:59 40° NNW 02:16:27 10° NE
CBERS-1 4.1 02:08:16 10° N 02:13:19 59° WNW 02:13:59 54° WSW
Cosmos 2297 Rocket 3.9 02:08:50 10° NW 02:10:32 18° WNW 02:10:32 18° WNW
Resurs 1-4 Rocket 3.1 02:11:08 10° N 02:15:40 30° WNW 02:15:58 30° WNW
Cosmos 2082 3.7 02:12:43 10° NW 02:18:15 54° WSW 02:20:23 35° S
Cosmos 1933 3.2 02:18:15 78° W 02:18:20 78° WNW 02:22:26 10° N
USA 305 3.8 02:22:42 34° SSE 02:23:14 36° SE 02:27:09 10° ENE
Cosmos 2369 Rocket 4.5 02:23:28 10° NW 02:26:27 14° NNW 02:29:27 10° NNE
CZ-2D R/B 3.6 02:23:02 10° NNE 02:27:13 74° ESE 02:28:45 38° S
Meteor 1-26 Rocket 4.2 02:24:04 25° S 02:27:16 75° E 02:32:41 10° NNE
USA 306 3.7 02:26:37 35° SSE 02:27:17 37° SE 02:31:14 10° ENE
X-37B 2.9 02:29:08 16° SE 02:29:08 16° SE 02:30:18 10° ESE
SJ 16-02 2.3 02:24:15 10° NNW 02:28:31 48° ENE 02:32:47 10° SE
Meteor 1-25 Rocket 4.3 02:24:12 10° NNW 02:29:55 59° W 02:33:00 27° SSW
Gbstr 26 Del rocket 4.4 02:27:26 23° W 02:32:56 77° SSW 02:40:25 10° ESE
ASTEX 1 3.4 02:28:15 10° N 02:33:17 89° E 02:36:22 24° S
IRS-P3 4.2 02:28:22 10° N 02:33:38 60° WNW 02:35:28 39° SW
Cosmos 389 Rocket 3.2 02:32:19 31° SSE 02:33:40 50° E 02:37:09 10° NNE
Cosmos 1697 Rocket 2.6 02:32:33 35° SSW 02:35:02 90° ESE 02:40:42 10° NNE
CZ-2C R/B 4.0 02:32:33 10° NNE 02:37:14 36° E 02:41:59 10° SSE
H-2A R/B 2.2 02:33:30 10° SSE 02:37:52 80° ENE 02:42:22 10° NNW
USA 267 3.2 02:32:09 10° ENE 02:38:45 83° SSE 02:42:17 30° WSW
Cosmos 1980 Rocket 2.7 02:35:19 20° S 02:39:10 59° ESE 02:44:44 10° NE
CZ-4C R/B 4.1 02:33:38 10° NW 02:39:26 35° NNE 02:46:15 10° E
ERS-2 3.0 02:37:43 10° SE 02:41:16 50° ENE 02:44:50 10° N
Iridium 2 3.7 02:39:47 29° S 02:41:34 75° E 02:45:21 10° N
Cosmos 1602 3.7 02:39:08 10° NNW 02:42:54 55° W 02:43:13 53° WSW
Cosmos 2263 Rocket 2.3 02:38:58 10° NNW 02:44:39 80° ENE 02:50:20 10° SE
Meteor 1-14 Rocket 4.1 02:41:05 10° NNW 02:46:44 71° W 02:52:15 10° S
SL-8 R/B 4.1 02:46:01 38° SW 02:47:00 44° SSW 02:51:32 10° SE
Helios 1B 4.4 02:43:13 10° S 02:47:31 68° WSW 02:51:53 10° NNW
Cosmos 1818 4.2 02:46:11 29° W 02:48:30 44° NW 02:53:45 10° NE
ATLAS 2AS CENTAUR R/B 3.6 02:43:53 10° NW 02:51:29 56° NNE 02:58:32 10° ESE
SL-16 R/B 4.2 02:47:59 10° SSE 02:52:34 26° ESE 02:57:09 10° NE
Cosmos 1821 Rocket 4.4 02:47:12 10° NNW 02:53:03 41° W 02:56:29 22° SW
USA 307 3.4 02:52:25 32° SSW 02:54:01 51° SSE 02:58:09 10° ENE
Cosmos 1470 Rocket 4.1 02:50:30 10° NNW 02:54:36 37° W 02:55:25 34° WSW
Cosmos 2227 4.1 02:49:55 10° NNW 02:55:37 83° WSW 03:01:15 10° SSE
Spot 4 Rocket 4.0 02:51:09 10° NNE 02:56:17 71° WNW 02:59:44 21° SSW
Cosmos 1812 3.7 02:53:12 10° SSE 02:56:54 46° E 03:00:37 10° NNE
USA 308 3.3 02:55:23 31° SSW 02:57:06 53° SSE 03:01:15 10° ENE
Cosmos 1500 3.1 02:55:51 10° NNW 02:59:44 87° W 03:03:34 10° S
Cosmos 972 4.4 02:59:28 15° SSW 03:03:40 82° ESE 03:08:35 10° NNE
Cosmos 1666 3.5 03:01:49 10° N 03:05:36 52° ENE 03:09:20 10° SSE
Landsat 5 3.7 03:01:34 10° S 03:06:00 58° WSW 03:10:28 10° NNW
Meteor 1-5 Rocket 4.0 03:00:53 10° NNW 03:06:13 85° WSW 03:11:35 10° S
Meteor 2-6 Rocket 4.5 03:01:59 10° S 03:07:37 73° E 03:13:27 10° NNE
Cosmos 1934 Rocket 4.1 03:02:24 10° NNW 03:08:13 50° W 03:14:01 10° SSW
IRIDIUM 104 4.3 03:05:07 10° N 03:10:23 88° E 03:15:37 10° S
Cosmos 1238 Rocket 4.2 03:03:59 10° NNW 03:10:27 55° W 03:16:33 10° SSW
Cosmos 1782 3.1 03:10:11 26° SW 03:12:02 46° WNW 03:15:57 10° N
Cosmos 1898 Rocket 3.6 03:08:04 10° NNW 03:13:21 81° ENE 03:18:38 10° SSE
Lacrosse 5 1.9 03:12:00 23° SW 03:15:10 83° SSE 03:20:17 10° ENE
CZ-2C R/B 2.8 03:12:24 10° N 03:16:06 55° WNW 03:18:32 20° SW
USA 234 3.9 03:10:44 10° SSE 03:16:29 33° SW 03:22:17 10° WNW
ADEOS Rocket 3.1 03:09:46 10° SSE 03:16:35 90° ENE 03:22:44 10° NNW
CZ-4B R/B 1.8 03:13:31 10° SSE 03:16:38 60° ENE 03:19:50 10° N
ADEOS II 3.4 03:13:12 10° N 03:17:15 23° NW 03:19:23 18° W
Cosmos 1515 Rocket 4.0 03:15:08 22° SW 03:17:37 43° WNW 03:21:53 10° N
IRIDIUM 114 4.3 03:14:17 10° N 03:19:31 79° W 03:24:44 10° S
USA 276 2.5 03:21:38 27° WSW 03:23:04 53° S 03:26:14 10° E
USA 32 4.2 03:18:25 10° N 03:23:42 81° E 03:28:58 10° S
ADEOS 4.5 03:21:16 10° NNE 03:26:23 51° E 03:31:27 10° S
MSX 4.0 03:21:04 10° N 03:26:45 58° WNW 03:32:23 10° SW
Cosmos 1356 4.4 03:24:11 10° NW 03:27:07 26° W 03:28:27 20° SW
Cosmos 972 Rocket 4.5 03:24:16 19° WSW 03:27:15 39° WNW 03:31:55 10° NNE
Cosmos 44 3.2 03:24:49 14° SW 03:28:37 77° SE 03:33:21 10° NE
IRIDIUM 103 4.3 03:23:27 10° N 03:28:39 68° W 03:33:49 10° S
IDEFIX/ARIANE 42P 3.2 03:25:40 10° N 03:30:30 38° WNW 03:34:28 14° SW
Cosmos 1707 Rocket 4.1 03:26:41 10° S 03:30:56 60° E 03:35:14 10° NNE
Cosmos 1605 Rocket 4.2 03:24:49 10° NNW 03:31:00 53° W 03:37:11 10° SSW
Meteor 1-11 Rocket 3.7 03:25:29 10° NNW 03:31:22 82° WSW 03:37:03 10° S
Cosmos 921 Rocket 2.9 03:28:12 10° SSW 03:32:24 88° WNW 03:36:37 10° NNE
Cosmos 2278 3.8 03:28:10 14° SW 03:33:01 62° NW 03:38:42 10° NNE
CZ-3B R/B 2.9 03:32:06 17° W 03:34:48 75° N 03:47:21 10° E
Cosmos 2228 Rocket 3.2 03:31:26 10° SSW 03:35:43 51° WNW 03:40:04 10° N
Cosmos 1743 4.5 03:34:16 10° N 03:37:50 36° ENE 03:41:22 10° SE
SAR-Lupe-4 3.5 03:34:43 10° SSE 03:38:18 86° WSW 03:41:56 10° NNW
ARIANE 5 R/B 3.6 03:34:39 10° N 03:38:52 26° WNW 03:42:10 14° WSW
Cosmos 2369 4.3 03:36:40 15° WSW 03:41:08 42° NW 03:46:36 10° NNE
Cosmos 1937 Rocket 3.4 03:37:17 10° NNW 03:42:29 83° WSW 03:47:36 10° SSE
CZ-4C R/B 4.4 03:42:39 12° SW 03:44:59 20° W 03:47:41 10° NW
ALOS 3.0 03:41:16 10° NNE 03:45:53 56° E 03:50:29 10° S
Cosmos 1733 Rocket 3.2 03:41:49 10° N 03:46:13 80° ENE 03:50:33 10° SSE
SKYMED 2 4.3 03:44:21 10° SSE 03:48:36 58° ENE 03:52:53 10° N
Meteor 1-27 Rocket 4.0 03:43:13 10° S 03:49:09 80° E 03:55:05 10° NNE
Cosmos 1536 2.8 03:45:54 10° NNW 03:49:59 73° W 03:54:02 10° S
SAR-Lupe-1 4.0 03:47:05 10° S 03:50:38 66° WSW 03:54:13 10° NNW
Cosmos 1869 Rocket 4.2 03:47:00 10° NNW 03:50:57 34° W 03:54:52 10° SSW
ATLAS 5 CENTAUR R/B 3.5 03:50:14 10° WNW 03:54:05 25° N 03:58:25 10° NE
Cosmos 1484 Rocket 3.2 03:50:47 10° NNE 03:54:46 71° ESE 03:58:45 10° S
Meteor 1-4 Rocket 2.6 03:54:31 10° SSW 03:57:55 54° WNW 04:01:24 10° N
Cosmos 1725 Rocket 4.5 03:54:26 10° N 04:00:39 68° ENE 04:06:47 10° SSE
USA 305 2.9 03:58:51 11° WSW 04:03:02 87° NNW 04:07:18 10° ENE
X-37B 2.4 04:01:30 10° WSW 04:03:50 19° S 04:06:11 10° SE
Cosmos 1862 Rocket 4.0 04:00:23 10° S 04:04:44 66° E 04:09:05 10° NNE
Cosmos 1689 Rocket 2.0 04:02:07 10° S 04:05:04 77° WSW 04:08:04 10° NNW
Meteor 1-31 Rocket 3.0 04:01:43 10° NNE 04:05:33 75° ESE 04:09:22 10° S
Cosmos 2100 Rocket 4.1 03:59:21 10° NNW 04:05:41 68° W 04:12:00 10° S
SJ 16-02 2.4 04:03:19 10° NW 04:06:51 24° W 04:10:22 10° SSW
USA 306 2.9 04:02:50 10° WSW 04:07:07 85° NNW 04:11:24 10° ENE
PSLV R/B 4.1 04:04:04 10° N 04:07:58 37° WNW 04:11:49 10° SW
Cosmos 1802 Rocket 4.0 04:01:53 10° NNW 04:08:04 82° W 04:14:19 10° S
Cosmos 1727 Rocket 4.1 04:02:13 10° SSW 04:08:29 59° WNW 04:14:45 10° N
Cosmos 1763 Rocket 3.6 04:03:10 10° SSW 04:08:30 88° WNW 04:13:51 10° NNE
Cosmos 389 Rocket 4.3 04:06:25 10° WSW 04:08:42 16° WNW 04:11:00 10° NNW
Cosmos 2360 Rocket 3.4 04:07:49 10° S 04:13:12 45° ESE 04:18:34 10° NE
Cosmos 1437 Rocket 4.2 04:09:42 10° SSE 04:13:18 43° E 04:16:58 10° NNE
H-2A R/B 3.7 04:11:54 10° WSW 04:14:27 15° W 04:17:02 10° NW
CZ-2C R/B 3.0 04:10:47 10° N 04:15:31 41° WNW 04:20:21 10° SW
NOSS 3-4 (A) 3.9 04:11:48 10° NW 04:18:37 65° SW 04:26:11 10° SSE
NOSS 3-4 (C) 3.9 04:11:55 10° NW 04:18:44 65° SW 04:26:18 10° SSE
